Starlink 11343

operational
NORAD ID: 62017 Int'l Des: 2024-213 Owner: SPXS Country: US Constellation: starlink
LEOCIRCULAR

About Starlink 11343

Description loading...

Live Position

Loading 3D Globe...

Upcoming Passes

Altitude History

Altitude vs Time

uPlot chart will show altitude changes over time

Two-Line Element Set

1 62017U 24213K 25353.27528182 .00189380 00000-0 15263-2 0 9999
2 62017 53.1572 77.7926 0001337 126.7664 233.3477 15.69809107 62288
Epoch: Dec 19, 2025 • Age: 11 hours

Current Status

Altitude 360.2 km
Velocity 7.70 km/s
Sub-Earth Point 26.41°N, 107.05°E
Launch Date Nov 18, 2024
Age 1 years
Type internet

Technical Details

Classification Payload
Mass 960.00 kg
Dry Mass 910.00 kg
Total Mass 960.00 kg
Length 0.30 m
Diameter 4.10 m
Span 29.00 m
Shape Box + pan
Manufacturer SPXS
Bus Type Starlink V2MD
Phase Status In Orbit
Owner/State SPXS/US

Large Constellations

Loading constellations...